When you browse on this site, cookies collect data to enhance your experience and personalize the content and advertising you see.
Visit our Privacy Policy to learn more. By continuing to use the site, you agree to this use of cookies and data.
  • In Hungary
  • List of Countries
  • For 7 days
  • Water Temperature
  • Weather Map
  • News
  • Weather Widgets
  • user-avatar
    Login

    Hourly Weather Kapaklijeve

    Today, 6 April, Monday

    Time Temperature Precipitation Wind Pressure Humidity
    00:00 +5°C° 0 mm 5 mps 762 mmHg 44%
    01:00 +3°C° 0 mm 5 mps 763 mmHg 46%
    02:00 +3°C° 0 mm 3 mps 763 mmHg 50%
    03:00 +3°C° 0 mm 3 mps 763 mmHg 53%
    04:00 +2°C° 0 mm 3 mps 764 mmHg 55%
    05:00 +1°C° 0 mm 4 mps 764 mmHg 57%
    06:00 +3°C° 0 mm 4 mps 764 mmHg 51%
    07:00 +5°C° 0 mm 5 mps 765 mmHg 45%
    08:00 +7°C° 0 mm 6 mps 765 mmHg 39%
    09:00 +8°C° 0 mm 5 mps 766 mmHg 35%
    10:00 +9°C° 0 mm 5 mps 766 mmHg 31%
    11:00 +12°C° 0 mm 5 mps 766 mmHg 26%
    12:00 +12°C° 0 mm 5 mps 766 mmHg 25%
    13:00 +13°C° 0 mm 4 mps 766 mmHg 23%
    14:00 +14°C° 0 mm 4 mps 766 mmHg 21%
    15:00 +14°C° 0 mm 4 mps 766 mmHg 22%
    16:00 +14°C° 0 mm 4 mps 765 mmHg 23%
    17:00 +13°C° 0 mm 3 mps 765 mmHg 23%
    18:00 +12°C° 0 mm 3 mps 765 mmHg 27%
    19:00 +10°C° 0 mm 2 mps 765 mmHg 31%
    20:00 +8°C° 0 mm 2 mps 765 mmHg 35%
    21:00 +9°C° 0 mm 1 mps 765 mmHg 36%
    22:00 +8°C° 0 mm 1 mps 765 mmHg 38%
    23:00 +8°C° 0 mm 1 mps 765 mmHg 39%

    Tomorrow, 7 April, Tuesday

    Time Temperature Precipitation Wind Pressure Humidity
    00:00 +7°C° 0 mm 1 mps 765 mmHg 40%
    01:00 +7°C° 0 mm 1 mps 765 mmHg 40%
    02:00 +7°C° 0 mm 1 mps 765 mmHg 41%
    03:00 +6°C° 0 mm 1 mps 765 mmHg 42%
    04:00 +5°C° 0 mm 2 mps 765 mmHg 43%
    05:00 +5°C° 0 mm 2 mps 765 mmHg 44%
    06:00 +6°C° 0 mm 2 mps 765 mmHg 41%
    07:00 +8°C° 0 mm 2 mps 765 mmHg 38%
    08:00 +9°C° 0 mm 2 mps 765 mmHg 36%
    09:00 +11°C° 0 mm 3 mps 765 mmHg 33%
    10:00 +12°C° 0 mm 3 mps 765 mmHg 29%
    11:00 +14°C° 0 mm 4 mps 765 mmHg 26%
    12:00 +15°C° 0 mm 4 mps 765 mmHg 26%
    13:00 +15°C° 0 mm 4 mps 765 mmHg 26%
    14:00 +17°C° 0 mm 4 mps 765 mmHg 26%
    15:00 +16°C° 0 mm 3 mps 765 mmHg 27%
    16:00 +16°C° 0 mm 3 mps 764 mmHg 28%
    17:00 +16°C° 0 mm 3 mps 764 mmHg 29%
    18:00 +14°C° 0 mm 2 mps 764 mmHg 33%
    19:00 +13°C° 0 mm 2 mps 764 mmHg 38%
    20:00 +10°C° 0 mm 2 mps 763 mmHg 42%
    21:00 +10°C° 0 mm 2 mps 763 mmHg 45%
    22:00 +9°C° 0 mm 2 mps 764 mmHg 48%
    23:00 +9°C° 0 mm 2 mps 764 mmHg 51%

    Day after tomorrow, 8 April, Wednesday

    Time Temperature Precipitation Wind Pressure Humidity
    00:00 +8°C° 0 mm 2 mps 763 mmHg 55%
    01:00 +8°C° 0 mm 2 mps 763 mmHg 60%
    02:00 +8°C° 0 mm 1 mps 763 mmHg 65%
    03:00 +8°C° 0 mm 1 mps 763 mmHg 66%
    04:00 +7°C° 0 mm 1 mps 763 mmHg 68%
    05:00 +6°C° 0 mm 0 mps 763 mmHg 69%
    06:00 +8°C° 0 mm 1 mps 762 mmHg 64%
    07:00 +10°C° 0 mm 1 mps 762 mmHg 59%
    08:00 +11°C° 0 mm 1 mps 762 mmHg 54%
    09:00 +13°C° 0 mm 1 mps 762 mmHg 49%
    10:00 +14°C° 0 mm 2 mps 762 mmHg 44%
    11:00 +14°C° 0 mm 3 mps 761 mmHg 39%
    12:00 +16°C° 0 mm 3 mps 761 mmHg 37%
    13:00 +17°C° 0 mm 3 mps 760 mmHg 34%
    14:00 +18°C° 0 mm 3 mps 760 mmHg 32%
    15:00 +18°C° 0 mm 2 mps 759 mmHg 32%
    16:00 +18°C° 0 mm 2 mps 759 mmHg 32%
    17:00 +18°C° 0 mm 2 mps 758 mmHg 31%
    18:00 +16°C° 0 mm 2 mps 758 mmHg 36%
    19:00 +14°C° 0 mm 1 mps 758 mmHg 42%
    20:00 +13°C° 0 mm 1 mps 758 mmHg 47%
    21:00 +12°C° 0 mm 1 mps 757 mmHg 49%
    22:00 +11°C° 0 mm 1 mps 757 mmHg 51%
    23:00 +11°C° 0 mm 1 mps 757 mmHg 53%

    9 April, Thursday

    Time Temperature Precipitation Wind Pressure Humidity
    00:00 +10°C° 0 mm 1 mps 757 mmHg 53%
    01:00 +10°C° 0 mm 1 mps 757 mmHg 53%
    02:00 +10°C° 0 mm 1 mps 756 mmHg 53%
    03:00 +9°C° 0 mm 2 mps 756 mmHg 51%
    04:00 +8°C° 0 mm 2 mps 756 mmHg 50%
    05:00 +8°C° 0 mm 2 mps 756 mmHg 49%
    06:00 +10°C° 0 mm 2 mps 756 mmHg 46%
    07:00 +12°C° 0 mm 2 mps 755 mmHg 43%
    08:00 +14°C° 0 mm 2 mps 755 mmHg 40%
    09:00 +16°C° 0 mm 2 mps 755 mmHg 37%
    10:00 +17°C° 0 mm 2 mps 755 mmHg 34%
    11:00 +19°C° 0 mm 2 mps 755 mmHg 32%
    12:00 +20°C° 0 mm 2 mps 755 mmHg 30%
    13:00 +20°C° 0 mm 2 mps 754 mmHg 28%
    14:00 +21°C° 0 mm 2 mps 754 mmHg 27%
    15:00 +21°C° 0 mm 2 mps 753 mmHg 27%
    16:00 +21°C° 0 mm 2 mps 753 mmHg 28%
    17:00 +21°C° 0 mm 2 mps 753 mmHg 28%
    18:00 +19°C° 0 mm 2 mps 753 mmHg 32%
    19:00 +17°C° 0 mm 2 mps 752 mmHg 37%
    20:00 +15°C° 0 mm 2 mps 752 mmHg 41%
    21:00 +14°C° 0 mm 2 mps 752 mmHg 42%
    22:00 +14°C° 0 mm 2 mps 752 mmHg 43%
    23:00 +13°C° 0 mm 2 mps 752 mmHg 44%

    10 April, Friday

    Time Temperature Precipitation Wind Pressure Humidity
    00:00 +13°C° 0 mm 2 mps 752 mmHg 44%
    01:00 +12°C° 0 mm 2 mps 751 mmHg 44%
    02:00 +12°C° 0 mm 1 mps 751 mmHg 44%
    03:00 +12°C° 0 mm 1 mps 751 mmHg 44%
    04:00 +10°C° 0 mm 2 mps 751 mmHg 44%
    05:00 +10°C° 0 mm 2 mps 751 mmHg 44%
    06:00 +13°C° 0 mm 2 mps 751 mmHg 41%
    07:00 +14°C° 0 mm 2 mps 751 mmHg 37%
    08:00 +16°C° 0 mm 2 mps 751 mmHg 34%
    09:00 +18°C° 0 mm 2 mps 751 mmHg 31%
    10:00 +19°C° 0 mm 3 mps 751 mmHg 28%
    11:00 +21°C° 0 mm 3 mps 751 mmHg 25%
    12:00 +21°C° 0 mm 4 mps 750 mmHg 27%
    13:00 +22°C° 0 mm 5 mps 750 mmHg 28%
    14:00 +22°C° 0 mm 6 mps 750 mmHg 29%
    15:00 +21°C° 0 mm 7 mps 750 mmHg 33%
    16:00 +20°C° 0 mm 7 mps 750 mmHg 37%
    17:00 +18°C° 0 mm 7 mps 750 mmHg 41%
    18:00 +17°C° 0 mm 6 mps 750 mmHg 43%
    19:00 +15°C° 0 mm 5 mps 751 mmHg 45%
    20:00 +14°C° 0 mm 4 mps 751 mmHg 48%
    21:00 +13°C° 0 mm 4 mps 752 mmHg 50%
    22:00 +12°C° 0 mm 4 mps 752 mmHg 52%
    23:00 +11°C° 0 mm 4 mps 753 mmHg 54%

    11 April, Saturday

    Time Temperature Precipitation Wind Pressure Humidity
    00:00 +10°C° 0 mm 4 mps 753 mmHg 54%
    01:00 +8°C° 0 mm 4 mps 753 mmHg 55%
    02:00 +7°C° 0 mm 4 mps 753 mmHg 55%
    03:00 +7°C° 0 mm 4 mps 754 mmHg 59%
    04:00 +7°C° 0 mm 3 mps 754 mmHg 62%
    05:00 +5°C° 0 mm 3 mps 754 mmHg 66%
    06:00 +7°C° 0 mm 3 mps 755 mmHg 61%
    07:00 +8°C° 0 mm 4 mps 755 mmHg 56%
    08:00 +10°C° 0 mm 4 mps 755 mmHg 51%
    09:00 +11°C° 0 mm 4 mps 755 mmHg 45%
    10:00 +12°C° 0 mm 3 mps 755 mmHg 38%
    11:00 +13°C° 0 mm 3 mps 756 mmHg 32%
    12:00 +14°C° 0 mm 3 mps 755 mmHg 29%
    13:00 +16°C° 0 mm 2 mps 755 mmHg 27%
    14:00 +17°C° 0 mm 2 mps 755 mmHg 24%
    15:00 +17°C° 0 mm 2 mps 755 mmHg 24%
    16:00 +16°C° 0 mm 1 mps 755 mmHg 24%
    17:00 +16°C° 0 mm 1 mps 754 mmHg 24%
    18:00 +15°C° 0 mm 2 mps 755 mmHg 30%
    19:00 +13°C° 0 mm 2 mps 755 mmHg 35%
    20:00 +10°C° 0 mm 2 mps 755 mmHg 40%
    21:00 +10°C° 0 mm 2 mps 755 mmHg 44%
    22:00 +9°C° 0 mm 2 mps 755 mmHg 48%
    23:00 +8°C° 0 mm 2 mps 756 mmHg 52%
    Show more